Location: Miles
(41.4492°N, 81.6087°W)
Time: 19:50:33
(UTC+00:00)

Transit 2A - Pass Details

Date: 22 September 2024
Orbit: 590 x 960 km, 66.7° (Epoch: 05 October)

Event Time Altitude Azimuth Distance (km) Brightness Sun altitude
Rises 20:29:07 0° 158° (SSE) 3,398 9.5 30.3°
Reaches altitude 10° 20:32:28 10° 138° (SE) 2,534 8.7 29.7°
Maximum altitude 20:35:57 16° 102° (ESE) 2,181 8.1 29.2°
Drops below altitude 10° 20:39:33 10° 66° (ENE) 2,650 8.3 28.6°
Sets 20:43:09 0° 46° (NE) 3,632 9.0 28.0°
